When you browse on this site, cookies collect data to enhance your experience and personalize the content and advertising you see.
Visit our Privacy Policy to learn more. By continuing to use the site, you agree to this use of cookies and data.
  • In Portugal
  • List of Countries
  • For 7 days
  • Water Temperature
  • Satellite Maps
  • Weather Map
  • Weather Widgets
  • user-avatar
    Login

    Hourly Weather Yulara

    Today, 18 January, Friday

    Time Temperature Precipitation Wind Pressure Humidity
    00:00 +38°C° 0 mm 6 mps 711 mmHg 22%
    01:00 +36°C° 0 mm 6 mps 711 mmHg 24%
    02:00 +35°C° 0 mm 6 mps 711 mmHg 25%
    03:00 +34°C° 0 mm 6 mps 711 mmHg 29%
    04:00 +33°C° 0 mm 6 mps 712 mmHg 30%
    05:00 +33°C° 0 mm 5 mps 712 mmHg 32%
    06:00 +32°C° 0 mm 5 mps 712 mmHg 33%
    07:00 +34°C° 0 mm 5 mps 713 mmHg 31%
    08:00 +36°C° 0 mm 5 mps 713 mmHg 28%
    09:00 +39°C° 0 mm 5 mps 714 mmHg 24%
    10:00 +39°C° 0 mm 5 mps 714 mmHg 23%
    11:00 +40°C° 0 mm 5 mps 714 mmHg 23%
    12:00 +40°C° 0 mm 4 mps 714 mmHg 22%
    13:00 +41°C° 0 mm 5 mps 714 mmHg 21%
    14:00 +44°C° 0 mm 6 mps 714 mmHg 20%
    15:00 +45°C° 0 mm 7 mps 714 mmHg 18%
    16:00 +43°C° 0.3 mm 8 mps 714 mmHg 22%
    17:00 +42°C° 0.3 mm 9 mps 714 mmHg 25%
    18:00 +39°C° 0.3 mm 9 mps 714 mmHg 29%
    19:00 +37°C° 2.9 mm 8 mps 715 mmHg 36%
    20:00 +33°C° 2.9 mm 7 mps 715 mmHg 44%
    21:00 +30°C° 2.9 mm 6 mps 716 mmHg 52%
    22:00 +31°C° 0.5 mm 8 mps 716 mmHg 53%
    23:00 +29°C° 0.5 mm 9 mps 717 mmHg 53%

    Tomorrow, 19 January, Saturday

    Time Temperature Precipitation Wind Pressure Humidity
    00:00 +29°C° 0.5 mm 10 mps 717 mmHg 54%
    01:00 +29°C° 0.4 mm 10 mps 717 mmHg 55%
    02:00 +29°C° 0.4 mm 10 mps 716 mmHg 55%
    03:00 +28°C° 0.4 mm 9 mps 716 mmHg 56%
    04:00 +28°C° 0 mm 9 mps 716 mmHg 56%
    05:00 +28°C° 0 mm 9 mps 717 mmHg 56%
    06:00 +28°C° 0 mm 8 mps 717 mmHg 57%
    07:00 +29°C° 0 mm 9 mps 717 mmHg 50%
    08:00 +32°C° 0 mm 9 mps 717 mmHg 43%
    09:00 +33°C° 0 mm 10 mps 718 mmHg 36%
    10:00 +35°C° 0 mm 8 mps 718 mmHg 32%
    11:00 +38°C° 0 mm 7 mps 717 mmHg 28%
    12:00 +41°C° 0 mm 6 mps 717 mmHg 23%
    13:00 +42°C° 0 mm 5 mps 717 mmHg 22%
    14:00 +43°C° 0 mm 4 mps 716 mmHg 20%
    15:00 +44°C° 0 mm 4 mps 716 mmHg 18%
    16:00 +44°C° 0 mm 4 mps 715 mmHg 18%
    17:00 +43°C° 0 mm 4 mps 715 mmHg 18%
    18:00 +43°C° 0 mm 5 mps 715 mmHg 18%
    19:00 +41°C° 0 mm 7 mps 716 mmHg 22%
    20:00 +39°C° 0 mm 9 mps 716 mmHg 25%
    21:00 +38°C° 0 mm 11 mps 717 mmHg 29%
    22:00 +37°C° 0 mm 11 mps 717 mmHg 29%
    23:00 +37°C° 0 mm 11 mps 717 mmHg 30%

    Day after tomorrow, 20 January, Sunday

    Time Temperature Precipitation Wind Pressure Humidity
    00:00 +36°C° 0 mm 11 mps 717 mmHg 31%
    01:00 +36°C° 0 mm 11 mps 717 mmHg 31%
    02:00 +36°C° 0 mm 10 mps 716 mmHg 31%
    03:00 +34°C° 0 mm 10 mps 716 mmHg 31%
    04:00 +34°C° 0 mm 10 mps 716 mmHg 29%
    05:00 +34°C° 0 mm 10 mps 717 mmHg 27%
    06:00 +34°C° 0 mm 10 mps 717 mmHg 24%
    07:00 +36°C° 0 mm 11 mps 717 mmHg 23%
    08:00 +37°C° 0 mm 11 mps 717 mmHg 21%
    09:00 +38°C° 0 mm 11 mps 718 mmHg 19%
    10:00 +40°C° 0 mm 10 mps 718 mmHg 17%
    11:00 +43°C° 0 mm 9 mps 717 mmHg 15%
    12:00 +45°C° 0 mm 7 mps 717 mmHg 13%
    13:00 +46°C° 0 mm 6 mps 716 mmHg 13%
    14:00 +47°C° 0 mm 6 mps 716 mmHg 12%
    15:00 +47°C° 0 mm 5 mps 715 mmHg 11%
    16:00 +47°C° 0 mm 5 mps 715 mmHg 12%
    17:00 +46°C° 0 mm 5 mps 715 mmHg 12%
    18:00 +46°C° 0 mm 5 mps 715 mmHg 12%
    19:00 +44°C° 0 mm 7 mps 715 mmHg 14%
    20:00 +43°C° 0 mm 9 mps 715 mmHg 17%
    21:00 +42°C° 0 mm 11 mps 716 mmHg 19%
    22:00 +39°C° 0 mm 11 mps 716 mmHg 20%
    23:00 +38°C° 0 mm 12 mps 716 mmHg 21%

    21 January, Monday

    Time Temperature Precipitation Wind Pressure Humidity
    00:00 +37°C° 0 mm 12 mps 716 mmHg 23%
    01:00 +36°C° 0 mm 12 mps 716 mmHg 24%
    02:00 +34°C° 0 mm 12 mps 716 mmHg 26%
    03:00 +33°C° 0 mm 11 mps 715 mmHg 27%
    04:00 +33°C° 0 mm 10 mps 715 mmHg 27%
    05:00 +34°C° 0 mm 9 mps 716 mmHg 26%
    06:00 +34°C° 0 mm 8 mps 716 mmHg 25%
    07:00 +35°C° 0 mm 9 mps 716 mmHg 22%
    08:00 +38°C° 0 mm 9 mps 716 mmHg 19%
    09:00 +40°C° 0 mm 10 mps 717 mmHg 16%
    10:00 +43°C° 0 mm 9 mps 716 mmHg 15%
    11:00 +44°C° 0 mm 8 mps 716 mmHg 14%
    12:00 +46°C° 0 mm 7 mps 716 mmHg 13%
    13:00 +46°C° 0 mm 6 mps 715 mmHg 12%
    14:00 +47°C° 0 mm 5 mps 714 mmHg 11%
    15:00 +48°C° 0 mm 5 mps 714 mmHg 11%
    16:00 +47°C° 0 mm 5 mps 714 mmHg 11%
    17:00 +47°C° 0 mm 5 mps 714 mmHg 11%
    18:00 +46°C° 0 mm 5 mps 714 mmHg 12%
    19:00 +45°C° 0 mm 5 mps 714 mmHg 12%
    20:00 +43°C° 0 mm 5 mps 715 mmHg 13%
    21:00 +42°C° 0 mm 6 mps 715 mmHg 14%
    22:00 +42°C° 0 mm 6 mps 715 mmHg 14%
    23:00 +42°C° 0 mm 5 mps 715 mmHg 14%

    22 January, Tuesday

    Time Temperature Precipitation Wind Pressure Humidity
    00:00 +41°C° 0 mm 5 mps 715 mmHg 14%
    01:00 +40°C° 0 mm 6 mps 715 mmHg 15%
    02:00 +39°C° 0 mm 6 mps 715 mmHg 16%
    03:00 +38°C° 0 mm 6 mps 714 mmHg 17%
    04:00 +36°C° 0 mm 5 mps 715 mmHg 19%
    05:00 +35°C° 0 mm 5 mps 715 mmHg 20%
    06:00 +34°C° 0 mm 5 mps 715 mmHg 22%
    07:00 +36°C° 0 mm 5 mps 715 mmHg 20%
    08:00 +39°C° 0 mm 5 mps 716 mmHg 18%
    09:00 +41°C° 0 mm 5 mps 716 mmHg 16%
    10:00 +42°C° 0 mm 6 mps 716 mmHg 14%
    11:00 +45°C° 0 mm 6 mps 715 mmHg 13%
    12:00 +46°C° 0 mm 6 mps 715 mmHg 12%
    13:00 +47°C° 0 mm 7 mps 714 mmHg 12%
    14:00 +49°C° 0 mm 7 mps 714 mmHg 11%
    15:00 +49°C° 0 mm 7 mps 713 mmHg 10%
    16:00 +47°C° 0 mm 6 mps 713 mmHg 11%
    17:00 +47°C° 0 mm 6 mps 713 mmHg 11%
    18:00 +46°C° 0 mm 6 mps 713 mmHg 12%
    19:00 +45°C° 0 mm 5 mps 713 mmHg 12%
    20:00 +43°C° 0 mm 5 mps 714 mmHg 13%
    21:00 +42°C° 0 mm 5 mps 714 mmHg 14%
    22:00 +41°C° 0 mm 5 mps 714 mmHg 14%
    23:00 +40°C° 0 mm 6 mps 714 mmHg 15%

    23 January, Wednesday

    Time Temperature Precipitation Wind Pressure Humidity
    00:00 +40°C° 0 mm 6 mps 714 mmHg 15%
    01:00 +39°C° 0 mm 5 mps 714 mmHg 17%
    02:00 +37°C° 0 mm 5 mps 713 mmHg 18%
    03:00 +36°C° 0 mm 4 mps 713 mmHg 20%
    04:00 +35°C° 0 mm 4 mps 713 mmHg 21%
    05:00 +35°C° 0 mm 4 mps 714 mmHg 23%
    06:00 +34°C° 0 mm 4 mps 714 mmHg 24%
    07:00 +36°C° 0 mm 4 mps 714 mmHg 22%
    08:00 +38°C° 0 mm 4 mps 715 mmHg 20%
    09:00 +41°C° 0 mm 4 mps 715 mmHg 18%
    10:00 +43°C° 0 mm 4 mps 715 mmHg 16%
    11:00 +44°C° 0 mm 4 mps 715 mmHg 14%
    12:00 +47°C° 0 mm 4 mps 714 mmHg 12%
    13:00 +47°C° 0 mm 4 mps 714 mmHg 12%
    14:00 +47°C° 0 mm 4 mps 713 mmHg 12%
    15:00 +47°C° 0 mm 5 mps 712 mmHg 12%
    16:00 +46°C° 0 mm 5 mps 712 mmHg 13%
    17:00 +46°C° 0 mm 6 mps 712 mmHg 13%
    18:00 +45°C° 0 mm 7 mps 712 mmHg 14%
    19:00 +43°C° 0 mm 8 mps 713 mmHg 17%
    20:00 +42°C° 0 mm 9 mps 713 mmHg 19%
    21:00 +39°C° 0 mm 10 mps 713 mmHg 21%
    22:00 +39°C° 0.1 mm 8 mps 713 mmHg 22%
    23:00 +39°C° 0.1 mm 7 mps 713 mmHg 22%
    Show more